Regional Weather Roundup
Issued by NWS Upton, NY

Current Version | Previous Version | Text Only | Print | Product List | Glossary On
Versions: 1 2 3 4 5 6 7 8 9 10 11 12 13 14 15 16 17 18 19 20 21 22 23 24 25 26 27 28 29 30
000
ASUS41 KOKX 240405
RWROKX

REGIONAL WEATHER ROUNDUP
NATIONAL WEATHER SERVICE NEW YORK NY
1200 AM EDT WED AUG 24 2016

NOTE: "FAIR" INDICATES FEW OR NO CLOUDS BELOW 12,000 FEET WITH NO
SIGNIFICANT WEATHER AND/OR OBSTRUCTIONS TO VISIBILITY.

NYZ071-072-176-178-NJZ106-104-240500-
NEW YORK CITY METRO AREA

CITY           SKY/WX    TMP DP  RH WIND       PRES   REMARKS
Central Park   CLEAR     72  58  61 CALM      30.30R
LaGuardia APRT CLEAR     75  59  57 S10       30.26S
Kennedy INTL   CLEAR     71  64  78 SW10      30.28S
Newark/Liberty CLEAR     71  58  63 SW8       30.27S
Bronx Bot Gard   N/A     70  59  68 E3        30.29R
Wall St Helipt CLEAR     73  63  68 SW7       30.28S
Teterboro      CLEAR     71  56  58 CALM      30.26R
$$

NYZ177-179-078>081-240500-
LONG ISLAND NEW YORK

CITY           SKY/WX    TMP DP  RH WIND       PRES   REMARKS
Farmingdale    CLEAR     71  63  75 SW5       30.28S
MacArthur/ISP  CLEAR     68  60  75 SW5       30.27S
Shirley        CLEAR     69  60  73 SW3       30.28S
Riverhead      NOT AVBL
Westhampton    CLEAR     59  56  89 CALM      30.29S
Southampton      N/A     70  64  83 SW3       30.24S
Bridgehampton    N/A     63  59  88 CALM      30.27S
East Hampton   FAIR      60  57  89 CALM      30.27S
Montauk          N/A     69  61  75 VRB5      30.28S
$$

NYZ052-065-067-240500-
HUDSON VALLEY

CITY           SKY/WX    TMP DP  RH WIND       PRES   REMARKS
White Plains   CLEAR     64  60  87 CALM      30.28R
Newburgh       CLEAR     63  59  88 CALM      30.29R
Montgomery     CLEAR     61  58  90 CALM      30.28R
Poughkeepsie   CLEAR     64  59  83 CALM      30.26R
Albany         PTCLDY    64  58  80 CALM      30.26R
$$

NJZ001-105-106-008-010-013-015-019>022-104-240500-
NEW JERSEY

CITY           SKY/WX    TMP DP  RH WIND       PRES   REMARKS
Newark/Liberty CLEAR     71  58  63 SW8       30.27S
Teterboro      CLEAR     71  56  58 CALM      30.26R
Caldwell         N/A     66  58  75 CALM      30.28S
Morristown     CLEAR     59  57  94 CALM      30.28R
Somerville     CLEAR     62  59  90 CALM      30.27R
Linden         FAIR      70  56  62 CALM      30.29S
Sussex         CLEAR     59  59 100 CALM      30.29R
Abdover          N/A     58  57  97 CALM      30.30R
Trenton        CLEAR     67  59  75 CALM      30.28S
Millville      CLEAR     61  60  97 CALM      30.30S
Atlantic City  CLEAR     68  59  73 CALM      30.30R
Wrightstown    CLEAR     63  58  83 SW6       30.26S
Toms River     PTCLDY    58  55  90 CALM      30.30S
Belmar         CLEAR     66  57  72 S5        30.30S
$$

PAZ047>061-062-071-240500-
EASTERN PENNSYLVANIA

CITY           SKY/WX    TMP DP  RH WIND       PRES   REMARKS
Philadelphia   PTCLDY    73  60  63 SW8       30.30R
Allentown      CLEAR     62  58  86 N3        30.29R
Scranton       CLEAR     63  56  78 E7        30.30R
$$

CTZ002-004>006-009-010-012-RIZ004-006-007-MAZ004-011-015-240500-
SOUTHERN NEW ENGLAND
 IN CT

CITY           SKY/WX    TMP DP  RH WIND       PRES   REMARKS
Bradley INTL   CLEAR     67  56  67 CALM      30.27R
Hartford       CLEAR     68  58  70 CALM      30.26R
Danbury        CLEAR     58  57  97 SW3       30.29R
Wtrbury/Oxford   N/A     63  54  72 CALM      30.31R
Bridgeport     CLEAR     74  63  68 SW10      30.27R
Meriden        CLEAR     62  57  83 CALM      30.28R
New Haven      CLEAR     72  62  71 SW8       30.27S
Chester        FAIR      68  61  77 SW5       30.28R
Groton         CLEAR     71  61  70 W7        30.26S
Wilimantic     CLEAR     62  60  93 NE3       30.28R

 IN RI

CITY           SKY/WX    TMP DP  RH WIND       PRES   REMARKS
Providence     CLEAR     66  58  75 W7        30.26S
Block Island   CLEAR     68  61  78 SW9       30.28S
Westerly       CLEAR     69  61  75 SW3       30.28R
 IN MA

CITY           SKY/WX    TMP DP  RH WIND       PRES   REMARKS
Boston         CLEAR     70  57  63 SW7       30.24R
Worcester      CLEAR     62  53  72 W9        30.28R
Westfield      CLEAR     60  58  92 CALM      30.26R
Provincetown   CLEAR     65  60  84 SW9       30.25S
Nantucket      CLEAR     67  59  75 W8        30.27S
$$

ANZ330-335-338-340-345-350-353-355-240500-
COASTAL MARINE OBSERVATIONS


STATION/POSITION TIME  SKY/WX   TEMP    WIND        PRES    VSBY  WAVE
                                AIR SEA DIR/SP/G                  HT/PER
                 (UTC)          (F)     (DEG/KT/KT) (MB)    (MI)  (FT/S)
NY HARB ENTRANCE 0250            75 77  220/ 16/ 17 1024.7          2/ 3
20S FIRE ISLAND  0250            74 77  200/ 10/ 12 1025.0          2/12
GREAT SOUTH BAY  0330            75 79  220/ 12/ 14   N/A
23 SSW MONTAUK P 0250            74 74  230/ 10/ 12 1025.5          1/11
15 E BARNEGAT LI 0300               77                N/A           2/10
HUDSON CANYON    0250            73 78              1025.6          2/10
KINGS POINT      0300            72 76              1024.7
EXECUTION ROCKS  0300            73     180/ 10/ 12   N/A
CENTRAL LI SOUND 0300            73 75  220/ 14/ 16   N/A           2/ 3
EASTERN LI SOUND 0300            72 69  240/ 10/ 14   N/A
ROBBINS REEF     0300            73     220/  7/ 10 1024.3
$$


>>>>>>>>>>>>>>>>>>>>>>>>>>>> KEY <<<<<<<<<<<<<<<<<<<<<<<<<<<
>                                                          <
>     SKY/WX - Sky Condition/Present Weather               <
>     TMP    - Temperature in Fahrenheit                   <
>     DP     - Dew Point in Fahrenheit                     <
>     RH     - Relative Humidity in Percent                <
>     WIND   - Direction (from) and Speed in MPH           <
>     PRES   - Mean Sea Level Pressure (inches of Hg)      <
>     WCI    - Wind Chill Index                            <
>     VSB    - VISIBILITY IN MILES                         <
>     HX     - HEAT INDEX                                  <
>     TC     - TEMPERATURE IN CELSIUS                      <
>     VRB    - VARIABLE WIND DIRECTION                     <
>                                                          <
>>>>>>>>>>>>>>>>>>>>>>>>>>>> KEY <<<<<<<<<<<<<<<<<<<<<<<<<<<




USA.gov is the U.S. government's official web portal to all federal, state and local government web resources and services.